Location: Unspecified
(51.0950°N, 12.9690°E)
Time: 21:31:40
(UTC+00:00)

NOSS 2-2 (D) - Pass Details

Date: 28 October 2021
Orbit: 455 x 1751 km, 63.3° (Epoch: 28 November)

Event Time Altitude Azimuth Distance (km) Brightness Sun altitude
Rises 17:27:27 0° 193° (SSW) 2,490 6.9 -15.9°
Reaches altitude 10° 17:29:45 10° 180° (S) 1,591 5.7 -16.3°
Enters shadow 17:31:53 24° 144° (SE) 1,000 4.3 -16.6°
